User: anonymous   Login
Location: Dompnac
(44.5644°N, 4.1026°E)
Time: 16:18:18
(UTC+00:00)
Language:

Cosmos 2263 Rocket - Orbit

View from above orbital plane
View from above orbital plane
View from above satellite
View from above satellite

Ground track
Ground track

The orbit data is extracted from the following two-line orbital elements,

1 22803U 93059B   20334.53879284 -.00000156  00000-0 -53723-4 0  9997
2 22803  70.9877 111.3622 0019606 265.3471  94.5413 14.16828734406944
Epoch (UTC): 29 November 2020 12:55:51
Eccentricity: 0.0019606
inclination: 70.9877°
perigee height: 822 km
apogee height: 850 km
right ascension of ascending node: 111.3622°
argument of perigee: 265.3471°
revolutions per day: 14.16828734
mean anomaly at epoch: 94.5413°
orbit number at epoch: 40694

The dashed part of the orbit path shows where the satellite is in the earth's shadow,  

DLR